Regional Weather Roundup
Issued by NWS

Home | Current Version | Previous Version | Text Only | Print | Product List | Glossary On
Versions: 1 2 3 4 5 6 7 8 9 10 11 12 13 14 15 16 17 18 19 20 21 22 23 24 25 26 27
000
ASUS45 KBOU 280507
RWRCO

WEATHER ROUNDUP FOR COLORADO
NATIONAL WEATHER SERVICE DENVER/BOULDER CO
1000 PM MST MON FEB 27 2017

NOTE: "FAIR" INDICATES FEW OR NO CLOUDS BELOW 12000 FEET WITH NO
SIGNIFICANT WEATHER AND/OR OBSTRUCTIONS TO VISIBILITY.

COZ001>005-013-030-031-280600-
...NORTHWEST COLORADO...

CITY           SKY/WX    TMP DP  RH WIND       PRES   REMARKS
CRAIG          LGT SNOW  22  19  89 SE3       29.78R FOG
HAYDEN         CLOUDY    21  16  79 N10       29.77R WCI  10
MEEKER         FLURRIES  25  18  74 NE6       29.75R WCI  18
MOUNT WERNER   NOT AVBL
STEAMBOAT SPGS CLOUDY    20  19  92 W5        29.74R WCI  14
WALDEN         NOT AVBL
$$

COZ006>008-011-280600-
...WEST CENTRAL VALLEYS...

CITY           SKY/WX    TMP DP  RH WIND       PRES   REMARKS
GRAND JUNCTION CLOUDY    39  30  70 SE9       29.72R
MONTROSE       LGT RAIN  38  32  79 VRB5      29.77R
EAGLE          LGT SNOW  32  28  86 W9        29.71R FOG     WCI  24
RIFLE          CLOUDY    39  25  57 NW12G18   29.70R
DELTA          FAIR      39  35  84 CALM      29.75R
NUCLA          CLOUDY    37  32  81 SW12G17   29.80S
$$

COZ017>023-064>068-280600-
...SOUTHWEST COLORADO...

CITY           SKY/WX    TMP DP  RH WIND       PRES   REMARKS
DURANGO        LGT SNOW  31  30  96 E5        29.83F FOG     WCI  26
CORTEZ         LGT RAIN  36  34  92 SW10      29.82S
PAGOSA SPRINGS LGT SNOW  31  31 100 CALM      29.84S
TELLURIDE      LGT SNOW  27  26  94 CALM      29.79S
WOLF CREEK PAS CLOUDY    16  16 100 SW25G38   29.80S WCI  -3
$$

COZ009-010-012-014-032>034-037-058>063-280600-
...CENTRAL COLORADO...

CITY           SKY/WX    TMP DP  RH WIND       PRES   REMARKS
ASPEN          SNOW      27  26  96 N8        29.68R VSB 1/2 WCI  19
BUENA VISTA    CLOUDY    31  21  67 SE12      29.68S WCI  21
COPPER MTN     LGT SNOW  19  12  73 MISG      29.65F
BERTHOUD PASS  LGT SNOW  10   0  61 W18       29.62S VSB 3/4 WCI  -8
COTTONWOOD PAS FLURRIES  28  21  74 SW7       29.67S WCI  21
GUNNISON       FLURRIES  25  23  92 NW9       29.75R WCI  15
KREMMLING      CLOUDY    28  19  69 N10       29.70R WCI  19
LEADVILLE      LGT SNOW  19  16  88 CALM      29.65S VSB 3/4
SALIDA         CLOUDY    34  20  57 S12G23    29.79R WCI  25
SUNLIGHT       NOT AVBL
WILKERSON PASS CLOUDY    18  14  86 SW15G30   29.68F WCI   3
$$

COZ069>075-280600-
...SAN LUIS VALLEY/SANGRE DE CRISTO MOUNTAINS...

CITY           SKY/WX    TMP DP  RH WIND       PRES   REMARKS
ALAMOSA        FAIR      28  25  88 S8        29.79F WCI  20
LA VETA PASS   FLURRIES  27  21  80 S43G59    29.75F WCI   8
SAGUACHE       FAIR      27  21  80 SE9       29.76S WCI  17
$$

COZ035-036-038>040-280600-
...NORTHERN COLORADO FRONT RANGE...

CITY           SKY/WX    TMP DP  RH WIND       PRES   REMARKS
DENVER INTL AP MOCLDY    28  21  75 E14       29.65R WCI  17
DMNS CITY PARK   N/A     33  20  59 NE13G24   29.65R WCI  24
AURORA         MOCLDY    34  16  48 NE7       29.64R WCI  28
FRONT RANGE AP NOT AVBL
ERIE MUNI ARPT CLOUDY    32  23  68 NE10      29.66R WCI  24
BOULDER MUN AP CLOUDY    32  23  69 E5        29.65R WCI  27
CENTENNIAL     MOCLDY    39  16  39 SW13      29.63R
BROOMFIELD     MOCLDY    32  23  69 NE20      29.64R WCI  20
FORT COLLINS   FAIR      33  20  58 N22       29.63  WCI  21
LONGMONT       NOT AVBL
$$

COZ041-046-047-076>085-087-088-280600-
...PIKES PEAK/PALMER DIVIDE AND SOUTHERN FOOTHILLS...

CITY           SKY/WX    TMP DP  RH WIND       PRES   REMARKS
COLO. SPRINGS  FAIR      39  12  33 CALM      29.66F
A. F. ACADEMY  FAIR      35  12  38 S10       29.65F WCI  28
SCHRIEVER AFB  FAIR      33  10  38 W8        29.67F WCI  26
ELLICOTT       FAIR     N/A N/A N/A W9        29.66F
FALCON         FAIR      34  11  38 SW8       29.68S WCI  27
FORT CARSON    FAIR      39  12  32 SW10      29.65F
LIMON          FAIR     N/A N/A N/A E8        29.65R
MONUMENT HILL  FAIR      34  14  44 W12G18    29.67F WCI  25
TRINIDAD       FAIR      41  19  41 SW9       29.71F
$$

COZ042>045-048>051-090-091-280600-
...NORTHEAST COLORADO...

CITY           SKY/WX    TMP DP  RH WIND       PRES   REMARKS
GREELEY ARPT   FAIR      32  22  66 N9        29.67S WCI  24
AKRON          FAIR      29  22  75 NW22      29.64S WCI  15
BURLINGTON     FAIR      45  16  31 SW21      29.64R
WRAY           NOT AVBL
STERLING       NOT AVBL
HOLYOKE        FAIR      36  27  69 NW18G24   29.63R
FORT MORGAN    FAIR      28  22  78 SE3       29.70R
$$

COZ086-089-092>099-280600-
...SOUTHEAST COLORADO...

CITY           SKY/WX    TMP DP  RH WIND       PRES   REMARKS
PUEBLO         FAIR      42  16  34 W3        29.66S
LA JUNTA       FAIR      45  17  32 SW10      29.68F
LAMAR          FAIR      44  12  27 S12       29.68R
SPRINGFIELD      N/A     32  10  40 W3        29.74S
$$




USA.gov is the U.S. government's official web portal to all federal, state and local government web resources and services.